CZ-6A DEB

Satellite information

Favourite Embed

Satellite Type and Status

DEBRISIN ORBIT

Key statistics

Satellite CZ-6A DEB at a glance.

Uptime

1070

Days in orbit

Revolutions

≈ 14.1

Per day

Orbit

SSO

Sun Synchronous Orbit

Inclination

98.9

Latest

Satellite identification and parameters

Extended collection of information and parameters for CZ-6A DEB.

Object identification

Identified? True

Debris? True

Object name: CZ-6A DEB

International designator: 2022-151TD

Object number (NORAD): 54964

Object ID (CCSDS): 54964

Country: PEOPLES REPUBLIC OF CHINA (PRC)

Current information (Y/N): Y

RCS size: SMALL

Orbital parameters

Period: 102.353 minutes

Inclination: 98.861 deg

SMA: 7248.132 km

Apoapsis: 913.409 km

Periapsis: 826.584 km

RAAN: 285.4458 deg

Eccentricy: 0.00598945

Argument of periapsis: 331.6354 deg

Mean anomaly: 28.1559 deg

Mean motion: 14.06901335 rev/day

Mean motion (dot): 0.00000384 rev/day2

B* drag term: 0.00025251368 1/REarth

Two-line elements (TLE)

Creation date: Oct. 16, 2025, 2:37 a.m.

Reference frame: TEME

Reference center: EARTH

Epoch: Oct. 15, 2025, 10:34 p.m. UTC

TLE line 0: 0 CZ-6A DEB

TLE line 1: 1 54964U 22151TD 25288.94028724 .00000384 00000-0 25251-3 0 9993

TLE line 2: 2 54964 98.8610 285.4458 0059895 331.6354 28.1559 14.06901335150041

Live tracking on map

Real-time ground track for satellite CZ-6A DEB.

In-orbit conjunctions

A list of the most updated potential collisions computed for object CZ-6A DEB.

Target Orbit TCA Probability of collision Miss distance Type
CZ-6A DEB LEO 2025-06-30 07:38:19 0.000254697 353.0 (m) DEBRIS
METEOR 2-5 DEB LEO 2025-04-17 12:43:21 0.0003528921 138.0 (m) DEBRIS

Associated space launch

Chinese satellite reported for atmospheric/ocean/environmental/spatial parameter research purposes, details TBD.

CZ-6A DEB was lifted into orbit during the mission ‘Long March 6A | Yunhai 3’, on board a Long March 6A space rocket.

The launch took place on Nov. 11, 2022, 10:52 p.m. from Launch Complex 9A.

For more information about the launch, click the button.

Launch to space Long March 6A | Yunhai 3
Long March 6A | Yunhai 3

Agency: N/A

Status: Launch Successful

Launch date: Nov. 11, 2022, 10:52 p.m. UTC

Rocket: Long March 6A

Launch pad: Launch Complex 9A

Location: Taiyuan Satellite Launch Center, People's Republic of China

...

Latest news about this satellite

There are no fresh news available about this satellite. Check back as we update our databases every day.


Newsletter sign-up

Weekly statistics, charts and insights to help you stay on top of the space industry.